Preview of NWS' New Version of Forecast
This preview is not operational and should not be used for support decisions.

Regional Weather Roundup (RWR)

Issued by National Weather Service (NWS)

                            
000
ASUS46 KPQR 231510
RWROR 

OREGON REGIONAL WEATHER ROUNDUP
NATIONAL WEATHER SERVICE PORTLAND OR
800 AM PDT SUN JUN 23 2019

NOTE: "FAIR" INDICATES FEW OR NO CLOUDS BELOW 12,000 FEET WITH
NO SIGNIFICANT WEATHER AND/OR OBSTRUCTIONS TO VISIBILITY.

ORZ001>013-231600-
NORTHWEST OREGON

  
CITY           SKY/WX    TMP DP  RH WIND       PRES   REMARKS
ASTORIA        CLOUDY    55  52  89 W6        30.24R                  
TILLAMOOK      CLOUDY    55  48  76 SW3       30.27S                  
NEWPORT        CLOUDY    52  52 100 CALM      30.29S                  
PORTLAND       PTSUNNY   58  47  66 NW9       30.24R                  
VANCOUVER WA   CLOUDY    56  47  71 NW7       30.24R                  
SCAPPOOSE      CLOUDY    57  47  69 W3        30.23R                  
HILLSBORO      CLOUDY    56  46  69 N9        30.23R                  
AURORA         CLOUDY    57  46  66 NW7       30.24R                  
MCMINNVILLE    CLOUDY    56  52  86 CALM      30.23R                  
SALEM          CLOUDY    57  48  72 NW6       30.23R                  
CORVALLIS      CLOUDY    58  50  75 VRB6      30.24S                  
EUGENE         PTSUNNY   59  51  75 CALM      30.24S                  
$$

ORZ021-028-231600-
SOUTHWEST OREGON

  
CITY           SKY/WX    TMP DP  RH WIND       PRES   REMARKS
NORTH BEND     CLOUDY    58  52  80 N10       30.26S                  
BROOKINGS      SUNNY     69  46  43 W5        30.11S                  
ROSEBURG       CLOUDY    59  50  72 VRB3      30.23R                  
SEXTON SUMMIT  SUNNY     55  44  66 VRB3      30.22R                  
GRANTS PASS    FAIR      61  46  59 CALM      30.22S                  
MEDFORD        SUNNY     59  43  55 VRB3      30.19S                  
$$

ORZ014>016-041-231600-
COLUMBIA GORGE

  
CITY           SKY/WX    TMP DP  RH WIND       PRES   REMARKS
TROUTDALE      CLOUDY    57  48  72 W5        30.23S                  
HOOD RIVER     CLOUDY    55  46  71 W12G22    30.17R                  
THE DALLES     SUNNY     63  47  55 W18G25    30.12R                  
$$

ORZ029>031-041-044-049-050-061>064-502-503-505>511-231600-
EASTERN OREGON

  
CITY           SKY/WX    TMP DP  RH WIND       PRES   REMARKS
MADRAS         SUNNY     55  41  58 NW6       30.18S                  
REDMOND        SUNNY     59  39  47 W8        30.16S                  
BEND           SUNNY     57  37  47 CALM      30.16S                  
PRINEVILLE     SUNNY     55  41  58 W7        30.16R                  
KLAMATH FALLS  SUNNY     54  42  64 CALM      30.20R                  
LAKEVIEW       SUNNY     55  42  61 CALM      30.20S                  
HERMISTON      SUNNY     65  48  54 SW18G26   30.05F                  
PENDLETON      CLOUDY    60  44  55 W24G30    30.06S                  
JOHN DAY       SUNNY     55  41  60 W10G18    30.14S                  
MEACHAM        CLOUDY    50  41  71 CALM      30.11S                  
LA GRANDE      CLOUDY    57  41  55 NW13      30.11S                  
BAKER CITY     MOSUNNY   55  42  61 VRB5      30.09S                  
BURNS          SUNNY     56  37  49 NW9       30.15R                  
ROME             N/A     65  32  29 NW10      30.10S                  
ONTARIO        SUNNY     68  37  32 NW13      30.05S                  
$$